Location: Namasale
(1.5000°N, 32.6167°E)
Time: 17:37:44
(UTC+00:00)

Courier 1B - Pass Details

Date: 23 April 2021
Orbit: 962 x 1209 km, 28.3° (Epoch: 18 May)

Event Time Altitude Azimuth Distance (km) Brightness Sun altitude
Exits shadow 03:17:02 - 220° (SW) 4,159 10.3 -7.2°
Rises 03:17:13 0° 220° (SW) 4,106 10.3 -7.2°
Reaches altitude 10° 03:20:37 10° 208° (SSW) 3,128 9.8 -6.3°
Maximum altitude 03:27:00 27° 153° (SSE) 2,067 9.4 -4.8°
Drops below altitude 10° 03:33:09 10° 98° (E) 3,016 11.5 -3.3°
Sets 03:36:21 0° 86° (E) 3,935 13.2 -2.5°
